cover

John Cosani - Spaceman (Kastis Torrau Remix)

Get it on iTunes StoreListen on Apple Music

Trackname / Key / BPM / Publish dateArtists, Remixers / Label
123 bpm, 5A / C minor, 2015-06-29, Progressive House,  1  22

Tracks in release Visceral 028

#Trackname / Key / BPM / Publish dateArtists, Remixers / Label
1 124 bpm, 3A / Bb minor, 2015-06-29, Progressive House,  0  22
2 121 bpm, 10A / B minor, 2015-06-29, Progressive House,  0  22
3 120 bpm, 11A / F# minor, 2015-06-29, Deep House,  0  22
4 118 bpm, 11A / F# minor, 2015-06-29, Progressive House,  0  22
5 124 bpm, 12A / Db minor, 2015-06-29, Tech House,  1  22
6 120 bpm, 4A / F minor, 2015-06-29, Progressive House,  0  22
7 125 bpm, 12A / Db minor, 2015-06-29, Progressive House,  0  22
8 124 bpm, 3A / Bb minor, 2015-06-29, Progressive House,  0  22
9 126 bpm, 3A / Bb minor, 2015-06-29, Progressive House,  0  22
10 123 bpm, 5A / C minor, 2015-06-29, Progressive House,  1  22
11 124 bpm, 6A / G minor, 2015-06-29, Progressive House,  0  22
12 122 bpm, 7A / D minor, 2015-06-29, Progressive House,  0  22
13 125 bpm, 5A / C minor, 2015-06-29, Progressive House,  0  22
14 124 bpm, 5A / C minor, 2015-06-29, Progressive House,  0  22
15 122 bpm, 5A / C minor, 2015-06-29, Techno,  0  22
16 122 bpm, 5A / C minor, 2015-06-29, Tech House,  1  22
17 126 bpm, 9B / G major, 2015-06-29, Techno,  0  22
18 122 bpm, 7A / D minor, 2015-06-29, Progressive House,  0  22
19 124 bpm, 7A / D minor, 2015-06-29, Progressive House,  0  22
20 112 bpm, 7A / D minor, 2015-06-29, Electronica,  0  22
21 118 bpm, 6A / G minor, 2015-06-29, Electronica,  0  22
22 123 bpm, 9A / E minor, 2015-06-29, Progressive House,  0  22

Recommendations

#Trackname / Key / BPM / Publish dateArtists, Remixers / Label
1 122 bpm, 10B / D major, 2015-06-08, Progressive House,  14  1   3
2 126 bpm, 9A / E minor, 2015-08-31, Progressive House,  10  1   2
3 122 bpm, 5A / C minor, 2015-07-27, Techno,  8  1   3
4 125 bpm, 7B / F major, 2015-11-23, Techno,  3  1   3
5 128 bpm, 7B / F major, 2015-07-01, Trance,  2  1   3
6 125 bpm, 4B / Ab major, 2015-06-29, Progressive House,  2  1   2
7 124 bpm, 1A / Ab minor, 2015-06-26, Progressive House,  2  1   1
8 120 bpm, 2B / F# major, 2015-08-17, Techno,  2  1   2
9 125 bpm, 12A / Db minor, 2015-11-02, Progressive House,  1  1   50

Charts

ArtistTitleGenresPublish date
Onez!eNovember 2015 "Galaxy" Chart (Pt 1)Techno, Trance, Progressive House 2015-11-28
×

Sign in

Sign in to access your personalized pages, follow artists and labels you love, and create playlists fromyour favorite tracks.

Please wait...